Theta_e
334 335 336 334 339 339 344 346 348 349 353 356 357 356 357 361 359 352 353 357 352 349 352 350 368 362 360 360 360 361 363 359 358
332 334 336 333 338 339 342 346 348 350 353 356 357 355 361 357 358 357 357 365 361 353 363 358 358 357 359 360 362 362 364 357 361
332 336 336 335 338 343 343 345 348 351 353 356 357 356 356 355 356 358 359 360 359 362 362 358 361 360 357 359 361 362 366 363 365
329 335 335 337 338 342 347 345 348 349 352 355 355 355 356 358 356 357 357 356 358 359 362 362 361 362 361 361 360 362 366 365 363
333 335 335 335 338 340 342 348 349 350 351 353 355 356 357 355 357 358 355 356 357 359 361 364 363 364 362 360 360 362 362 359 358
331 334 335 340 339 338 341 345 352 350 354 353 355 356 354 355 356 356 356 357 359 359 362 362 362 363 362 361 361 361 361 362 360
329 332 334 337 339 342 341 349 353 355 353 355 355 356 359 362 359 360 357 358 361 360 364 366 365 364 365 363 361 360 361 361 360
332 331 330 334 336 340 345 348 355 356 355 358 357 358 357 361 365 364 365 363 364 361 364 365 365 362 362 361 359 355 360 364 362
333 332 332 334 339 337 339 345 350 354 358 358 359 360 357 363 363 363 363 363 363 364 362 362 364 362 363 360 360 335 338 345 358
331 332 334 338 340 341 342 344 350 352 355 358 362 361 360 361 364 363 366 363 363 362 362 365 366 362 361 361 354 324 327 332 353
329 328 331 338 343 346 348 349 351 354 355 362 360 360 360 361 362 361 362 360 362 367 366 366 365 362 361 359 335 322 322 326 351
330 327 330 336 347 346 348 349 352 354 354 357 355 355 356 357 353 356 356 355 365 365 364 363 359 356 347 351 335 320 321 329 350
332 329 330 337 345 348 347 349 346 347 349 350 344 354 355 358 356 357 353 351 356 352 357 348 347 333 334 325 332 316 317 327 346
332 329 330 334 339 340 346 351 349 346 346 345 347 348 352 350 351 351 351 351 352 351 346 342 332 326 324 324 316 321 314 319 341
327 328 332 333 335 335 339 346 346 344 342 343 347 348 347 348 348 347 344 342 340 329 324 322 320 320 319 321 317 314 314 315 319
327 326 326 334 336 334 338 341 343 340 345 349 348 345 343 339 338 339 341 337 332 327 323 320 318 318 317 316 319 318 313 312 316
324 325 325 330 331 330 329 335 334 333 340 343 341 337 333 330 327 330 332 333 332 328 326 323 323 322 320 319 320 323 324 324 323
328 325 325 327 326 326 326 329 328 329 337 338 332 326 325 326 323 317 314 313 313 325 316 315 327 326 322 316 315 311 302 302 321
328 327 328 325 326 327 328 328 327 326 327 334 331 327 326 323 324 325 323 321 317 301 301 299 297 298 308 304 300 297 297 296 298
325 329 329 328 327 328 329 330 331 331 334 333 329 327 328 328 327 327 326 327 327 324 310 300 298 298 299 299 298 297 296 296 298
Wind_Speed
24 21 17 8 20 13 19 16 16 15 17 16 14 13 12 9 9 7 7 7 7 7 4 6 12 7 6 7 3 4 3 5 6
20 22 21 12 18 19 15 13 16 15 16 15 16 16 12 11 9 10 7 6 8 8 5 2 9 6 7 6 5 5 4 6 5
13 21 21 21 18 17 13 15 16 15 16 15 15 14 13 13 12 11 10 4 5 6 5 6 1 6 8 8 8 8 6 7 8
11 15 25 23 11 18 14 12 14 16 15 16 15 14 13 12 12 13 11 9 9 9 8 4 6 7 7 7 7 7 5 9 9
3 7 22 15 17 17 18 9 15 16 16 15 15 14 13 13 12 11 12 11 11 10 10 8 9 7 9 9 10 8 9 10 10
6 2 8 11 14 11 13 16 12 15 15 15 15 14 15 14 14 13 12 11 11 11 10 10 10 7 10 10 10 8 8 9 10
3 6 4 8 11 10 9 14 14 13 15 14 14 14 12 12 13 12 12 11 11 11 10 9 9 10 9 8 9 10 10 7 10
5 4 8 8 7 14 11 9 14 14 15 14 14 13 12 11 10 10 10 10 10 10 11 11 10 9 9 9 10 8 8 8 8
5 8 9 17 12 10 11 15 14 14 13 14 13 13 13 11 11 10 10 10 10 9 11 10 10 11 8 8 5 5 4 4 6
1 2 6 12 13 13 6 16 8 13 12 12 13 12 12 12 11 11 9 10 11 11 11 11 9 10 9 9 6 5 4 4 5
3 3 5 10 5 7 9 7 7 9 11 11 10 7 9 6 8 9 9 11 9 11 10 9 8 8 8 4 7 7 5 6 7
5 1 4 7 2 4 4 5 9 8 8 9 9 11 9 7 5 5 5 9 9 10 8 8 2 1 4 7 7 9 8 10 7
6 3 4 2 5 5 11 9 6 9 7 7 5 6 4 2 2 2 2 3 1 3 0 5 5 8 8 10 5 10 8 7 7
3 3 4 3 7 7 4 10 13 10 7 6 7 8 7 5 5 2 2 2 2 1 3 4 7 8 7 7 6 6 6 6 3
4 4 4 2 6 6 6 4 12 12 11 8 8 9 9 6 6 4 5 7 6 7 8 6 5 6 5 4 4 8 6 7 8
4 5 3 2 6 8 7 8 10 11 9 10 10 11 11 10 9 7 7 8 8 7 5 5 4 4 3 3 2 2 6 8 9
6 5 6 4 10 9 8 10 9 7 5 8 10 11 10 9 8 7 7 6 6 6 5 4 4 4 4 4 3 3 4 4 6
9 6 7 7 8 8 9 8 9 6 7 9 11 10 8 7 6 7 7 8 6 5 6 4 3 3 2 3 1 2 6 4 3
7 7 8 10 9 9 7 10 9 9 7 8 11 9 7 6 6 6 5 6 7 11 9 6 7 7 2 5 9 7 8 8 9
8 10 8 9 10 10 9 9 10 10 9 9 10 10 7 7 7 6 6 5 5 7 5 5 7 7 8 9 8 7 6 4 4
Wind_Direction
205 222 213 217 157 198 162 186 172 183 166 177 191 190 201 199 210 223 240 190 238 236 233 175 135 176 226 221 236 225 235 255 237
191 219 220 198 193 145 180 168 172 186 169 185 190 193 188 197 199 236 236 216 206 247 258 176 159 186 213 240 241 256 269 238 274
195 187 222 220 190 167 159 184 174 185 176 185 192 199 191 194 193 208 224 203 217 272 316 251 43 193 215 222 233 239 248 262 219
278 193 199 218 192 172 154 189 170 179 182 185 194 198 191 200 200 200 210 222 218 226 245 253 263 257 263 260 245 246 255 278 298
317 329 198 198 193 180 174 193 167 180 183 189 195 195 195 196 207 211 207 217 218 215 226 218 236 242 247 242 252 244 235 240 268
59 79 5 292 192 181 174 186 187 183 186 191 190 195 194 201 202 205 217 210 216 219 214 214 226 215 232 236 243 245 246 246 255
22 52 0 322 293 244 179 175 189 188 193 192 192 193 198 196 204 209 212 214 210 215 220 223 236 224 225 227 244 243 247 266 263
162 49 316 282 253 254 236 195 179 192 199 192 192 191 193 198 200 212 214 219 214 217 216 214 222 229 227 228 236 242 235 234 231
147 175 199 286 273 195 208 225 196 190 203 191 197 184 195 190 193 207 215 215 226 205 231 233 211 226 223 233 290 61 34 325 233
182 327 335 261 230 200 241 197 178 193 194 198 185 191 190 192 193 202 212 220 219 222 222 230 226 230 227 226 131 74 36 8 270
125 324 332 333 302 144 174 196 175 183 202 187 178 185 176 173 207 213 201 228 231 229 229 225 230 242 244 210 89 50 3 308 265
100 26 302 302 292 197 142 125 161 134 162 167 159 179 188 192 205 216 248 248 239 234 234 229 208 143 66 74 89 47 3 325 267
101 51 321 33 79 119 165 135 115 124 153 169 170 186 165 166 135 119 249 43 332 43 187 118 111 82 59 39 71 40 3 346 313
68 69 1 45 96 94 50 141 160 141 149 115 107 110 116 87 65 98 223 119 67 340 131 113 99 92 79 74 33 33 16 8 333
26 80 64 53 76 65 32 107 125 125 115 128 127 118 124 143 133 117 76 83 71 72 78 63 91 101 104 80 60 43 28 58 66
88 87 69 65 93 87 51 68 88 86 97 116 115 105 96 90 83 73 90 110 107 98 97 109 113 102 83 81 68 87 74 56 52
98 89 85 90 94 85 76 69 78 63 101 99 100 95 97 97 94 92 85 85 100 103 101 102 115 130 137 153 154 188 158 133 102
111 120 98 86 85 83 90 90 83 61 83 98 100 96 94 93 98 100 90 71 20 88 65 28 101 108 109 94 123 45 64 32 20
117 117 111 102 102 94 90 102 98 96 90 107 116 118 115 119 122 98 96 103 100 57 62 73 84 63 75 98 84 73 51 31 21
126 130 132 127 122 120 112 99 98 102 107 112 117 118 119 124 131 123 132 141 127 116 98 79 82 74 61 67 114 88 63 77 125